Lid_Strength_Index
2 2 2 2 2 2 2 2 2 2 2 1 2 2 2 2 2 2 2 2 1 1 1 1 1 1 4 9 8 3 1 2 4 5 7 8 10 12 13 13 12 11 12 10 10 10 11
2 2 2 2 2 2 2 2 2 2 2 2 2 2 2 2 2 2 2 2 1 1 1 1 1 1 8 14 5 4 4 5 5 6 8 8 10 10 12 13 13 12 11 11 11 11 11
3 3 3 3 3 3 3 3 2 2 2 2 2 2 2 2 2 2 2 2 1 1 1 1 1 4 9 10 5 4 5 6 6 6 8 7 8 10 11 13 10 11 14 13 12 11 12
4 5 4 4 4 3 3 3 3 2 2 2 2 3 3 2 2 2 2 2 2 2 1 1 1 9 12 6 5 5 5 6 6 6 7 7 7 9 11 11 13 14 15 18 13 11 11
4 5 5 5 4 3 3 3 3 3 3 3 3 3 3 2 2 2 2 2 2 2 2 1 8 9 12 4 7 6 6 7 7 7 7 6 8 11 12 16 18 17 19 17 15 11 11
4 4 4 4 4 4 4 4 3 3 3 3 3 3 3 3 3 2 2 3 2 4 5 5 7 12 10 10 8 7 7 6 8 9 9 10 12 15 15 17 20 19 18 18 17 14 13
4 4 4 4 4 4 4 4 4 3 3 3 3 4 3 3 2 2 6 11 12 12 9 12 11 12 10 8 7 8 7 8 9 11 14 13 15 18 17 15 16 15 17 17 16 14 15
3 4 5 4 4 4 4 4 4 4 4 4 4 4 3 3 2 4 7 10 10 10 14 10 9 10 9 9 11 9 7 11 12 15 14 16 18 15 13 13 15 16 17 18 16 14 15
3 4 4 5 5 5 4 4 4 4 4 4 4 4 3 3 3 7 9 9 7 8 14 11 10 10 10 9 11 11 9 11 13 15 15 17 15 13 14 15 16 18 18 19 18 16 17
3 3 4 5 5 5 5 5 5 4 4 4 4 4 3 3 8 9 11 8 7 8 18 15 12 10 10 10 12 8 9 11 13 16 15 16 14 15 16 16 16 18 16 16 16 18 20
3 4 4 5 5 5 5 5 5 5 5 5 5 4 3 5 10 12 10 7 7 12 22 14 12 8 10 12 12 11 10 11 15 14 16 18 16 16 17 16 15 18 15 16 17 19 21
3 4 5 5 6 6 6 5 5 5 5 5 5 4 4 9 9 9 7 8 10 16 22 16 13 14 14 13 13 11 13 12 13 15 16 16 14 15 15 14 15 15 17 18 19 20 24
3 4 5 5 6 7 6 6 6 6 6 6 5 5 6 10 13 9 8 12 17 20 16 17 16 15 16 16 15 15 16 18 19 21 21 19 18 15 14 16 16 16 20 22 24 24 24
3 4 4 5 6 7 7 7 7 6 7 6 6 7 8 10 9 8 12 16 21 18 19 15 16 16 18 18 18 17 18 19 19 20 21 22 22 18 16 17 18 18 19 21 24 25 25
3 3 4 5 6 7 7 7 7 7 7 7 8 11 11 12 9 11 15 20 19 19 16 16 17 20 20 18 19 20 21 20 20 20 22 22 22 18 18 18 17 19 19 17 19 22 25
3 3 4 5 6 7 7 8 7 7 7 7 13 14 13 12 11 14 18 18 19 15 16 17 20 19 22 21 21 21 21 20 20 19 20 22 23 20 18 18 18 17 17 20 19 24 26
3 3 4 5 6 7 7 8 8 8 8 8 14 17 13 12 13 16 20 20 17 16 15 18 20 20 21 21 20 21 22 20 20 20 20 21 22 22 20 21 22 20 20 20 19 21 24
3 3 4 5 6 7 8 8 8 8 8 11 16 19 13 13 18 20 21 18 14 17 16 16 17 18 19 20 20 21 21 21 19 19 21 21 22 24 23 22 21 22 22 20 22 23 24
2 3 4 5 6 7 8 8 9 8 9 14 18 18 14 15 20 21 19 18 18 18 18 17 18 18 19 19 21 20 20 18 19 19 21 20 23 27 25 23 22 23 22 21 22 22 25
2 3 4 5 6 7 8 9 9 9 8 13 15 18 17 18 19 20 19 19 19 18 19 18 19 19 20 20 20 21 21 19 19 19 16 18 23 23 23 23 22 24 22 21 21 25 24
2 3 4 5 6 7 8 8 9 9 8 13 16 18 19 20 20 19 19 19 20 20 19 19 20 19 20 22 22 21 20 21 20 17 19 21 25 24 23 22 21 22 21 20 21 21 24
2 3 4 5 6 7 8 8 9 9 8 14 17 18 19 20 19 18 17 20 19 19 20 20 20 20 20 22 21 22 20 20 21 20 20 20 23 23 25 21 21 21 20 20 19 20 21
3 2 3 3 5 6 8 9 9 9 10 15 15 15 17 19 21 20 20 19 18 19 20 19 20 21 21 20 20 20 21 21 20 21 21 21 22 24 27 22 22 24 25 22 21 23 24
3 2 3 4 5 6 6 6 7 8 8 12 14 15 17 20 20 20 19 19 19 19 20 19 19 20 19 17 18 20 20 20 20 20 19 22 22 21 25 23 30 24 22 23 24 25 27
3 2 3 4 5 5 5 7 7 8 7 12 13 15 17 20 19 19 19 20 20 19 19 19 19 18 17 20 22 24 24 23 21 20 21 19 20 23 25 26 25 24 23 25 27 25 26
2 1 2 3 4 5 6 7 7 7 6 11 12 12 14 18 20 18 20 19 21 21 20 19 18 17 18 20 21 25 26 24 25 23 19 19 21 23 24 27 29 27 21 20 25 27 23
1 0 2 3 4 5 6 7 7 7 7 11 13 13 14 18 19 18 20 20 19 20 20 20 19 19 18 21 23 24 25 22 25 25 23 23 23 24 24 27 25 23 19 19 27 26 19
0 1 2 3 4 6 6 8 7 7 8 11 14 13 15 18 19 18 17 19 19 18 21 20 20 20 20 21 21 22 24 23 24 23 23 23 24 26 25 26 27 21 20 21 21 19 17
0 1 2 3 5 7 7 7 6 7 8 10 15 13 13 17 19 17 17 17 17 16 18 19 20 20 19 21 21 21 22 23 25 26 22 25 23 25 23 24 22 19 19 18 18 18 17